カタログに戻る

STARLINK-30239

運用中通信VLEO
NORAD 57291·PAYLOAD·🇺🇸 United States

打ち上げ Jul 10, 2023 から Cape Canaveral Space Force Station

Loading…

次のパス (今後24時間)

TLE

最新Source: CelesTrak SupGP

元期: Sep 14, 2026, 22:33 UTC

1 57291C 23096B   26257.94006944  .00211650  00000+0  24487-2 0  2570
2 57291  42.9996 227.9862 0001574 270.9919 120.0225 15.60837373    11

AllMySatでSTARLINK-30239をリアルタイム追跡

Download on the App Store